This is the latest recevied weather packets stored in our database for station/object LEAS. If no packets are shown the sender has not sent any weather packets the latest 10 day(s).
| Time | Temp. | Humidity | Pressure | Rain* | Wind** | Luminosity | Snow |
|---|---|---|---|---|---|---|---|
| 1788343204 | 22.78° C | 68% | 1023 hPa | - | - | - | - |
| 1788342302 | 22.78° C | 68% | 1023 hPa | - | - | - | - |
| 1788341404 | 22.22° C | 73% | 1023 hPa | - | - | - | - |
| 1788340503 | 22.22° C | 73% | 1023 hPa | - | - | - | - |
| 1788327903 | 17.78° C | 93% | 1022 hPa | - | - | - | - |
| 1788326103 | 18.89° C | 88% | 1022 hPa | - | - | - | - |
| 1788322526 | 17.78° C | 93% | 1022 hPa | - | - | - | - |
| 1788310803 | 17.22° C | 100% | 1022 hPa | - | - | - | - |
| 1788303603 | 17.78° C | 93% | 1023 hPa | - | - | - | - |
| 1788302703 | 17.78° C | 93% | 1023 hPa | - | - | - | - |
| 1788301803 | 17.78° C | 93% | 1022 hPa | - | - | - | - |
| 1788300903 | 17.78° C | 93% | 1022 hPa | - | - | - | - |
| 1788299103 | 18.89° C | 88% | 1022 hPa | - | - | - | - |
| 1788298204 | 18.89° C | 88% | 1022 hPa | - | - | - | - |
| 1788295503 | 18.89° C | 88% | 1022 hPa | - | - | - | - |
| 1788294630 | 20° C | 82% | 1022 hPa | - | - | - | - |
| 1788292804 | 20° C | 82% | 1022 hPa | - | - | - | - |
| 1788291003 | 20° C | 82% | 1022 hPa | - | - | - | - |
| 1788290103 | 20° C | 82% | 1022 hPa | - | - | - | - |
| 1788289204 | 21.11° C | 77% | 1022 hPa | - | - | - | - |
| 1788288302 | 21.11° C | 77% | 1022 hPa | - | - | - | - |
| 1788286503 | 22.22° C | 73% | 1022 hPa | - | - | - | - |
| 1788285605 | 22.22° C | 78% | 1022 hPa | - | - | - | - |
| 1788284703 | 22.22° C | 78% | 1022 hPa | - | - | - | - |
| 1788279303 | 22.78° C | 68% | 1021 hPa | - | - | - | - |
* Rain since midnight (hover to see other rain measurements)
** Current wind speed in m/s (hover to see current wind gust speed)